Wind_Speed
19 14 19 20 17 17 7 8 8 4 3 10 11 8 15 16 17 19 21 20 21 21 23 25 24 23 21 20 20 19 17 14 11 11 10 8 8 6 5 3 2 2 4 6
18 22 23 20 18 16 14 11 11 4 3 11 8 10 10 18 20 18 20 21 22 21 20 24 26 26 25 24 23 22 20 16 14 12 9 7 4 5 5 5 3 1 3 6
27 22 23 21 17 17 16 14 10 11 6 12 9 14 13 17 18 18 19 20 21 22 22 22 27 28 27 26 26 24 22 18 17 14 11 8 6 7 6 5 3 1 3 6
27 24 24 23 23 20 19 14 11 7 10 8 5 8 14 18 21 21 20 21 21 22 22 21 26 28 28 28 27 25 23 21 18 17 15 12 10 8 5 4 2 2 3 5
21 26 22 22 26 23 19 6 11 10 11 12 11 7 6 16 16 23 23 22 21 22 23 23 26 28 29 28 28 26 25 23 22 20 18 15 14 11 10 7 5 5 4 3
22 16 21 28 25 23 18 8 9 9 11 11 15 8 8 12 16 20 23 23 22 22 22 22 28 28 28 28 27 26 25 24 23 24 20 19 15 13 10 8 7 7 5 5
21 23 17 17 25 21 19 17 10 10 10 11 6 7 15 4 5 9 23 25 24 22 22 22 23 27 28 29 28 27 26 25 24 24 24 21 19 17 14 12 11 8 8 6
20 22 23 17 26 20 26 23 13 11 12 12 7 8 6 2 3 6 13 25 24 23 21 22 24 29 30 29 29 27 26 24 23 24 24 22 20 18 16 14 13 10 9 8
20 29 28 22 21 26 24 25 23 13 9 11 11 11 12 14 2 7 15 24 25 24 22 23 24 30 30 30 30 29 27 25 24 23 22 22 20 19 17 14 12 12 10 9
14 17 19 27 19 25 24 22 21 12 18 14 13 10 8 9 3 8 15 23 24 22 22 21 20 28 29 29 29 28 27 26 24 23 22 21 20 19 17 16 16 14 10 9
23 16 22 22 21 23 20 20 20 19 15 12 12 12 13 3 4 11 16 21 23 23 21 20 19 26 27 27 28 28 27 26 25 24 23 21 20 19 18 18 16 14 11 9
26 13 15 27 26 26 27 23 26 16 20 14 10 7 8 2 3 11 18 19 20 21 20 19 19 24 26 26 27 27 27 27 26 24 23 22 20 19 20 19 16 14 12 11
15 14 16 19 23 26 27 28 25 24 17 20 14 7 7 5 5 12 18 19 19 19 20 19 18 19 24 26 26 26 27 26 25 24 24 23 21 22 21 18 16 15 14 14
7 16 23 20 24 23 28 27 28 28 19 19 20 19 12 4 8 11 17 19 18 18 19 19 18 16 23 25 26 26 26 26 25 25 24 23 24 23 20 17 17 16 16 16
5 17 21 25 19 23 26 29 29 28 28 24 19 23 15 6 3 9 12 16 19 20 20 20 20 18 24 25 26 26 26 27 27 26 25 25 23 21 20 20 19 18 18 17
11 9 16 21 23 13 28 30 29 28 28 26 26 19 20 12 4 7 14 16 18 20 21 21 21 20 23 27 28 28 28 28 27 27 26 25 23 22 22 21 21 20 19 19
7 4 9 19 21 21 19 26 30 27 27 27 25 23 16 13 10 10 12 16 19 20 20 21 22 21 28 31 31 30 29 27 27 27 25 24 24 24 24 23 23 22 21 20
8 7 6 11 20 27 18 20 21 24 28 27 25 23 22 15 13 14 11 11 17 20 21 21 20 24 29 31 32 32 30 29 28 27 28 27 26 24 23 24 23 23 22 22
14 8 5 9 16 15 21 21 23 20 19 18 24 26 21 16 19 19 14 12 13 17 17 20 28 31 29 31 32 30 30 30 30 31 29 27 26 26 26 27 27 25 23 22
18 14 9 7 17 24 13 20 8 18 21 21 19 19 18 20 12 13 16 17 16 16 17 20 25 25 28 31 29 29 31 32 32 32 30 28 27 26 27 28 29 25 23 22
14 12 15 12 9 10 3 12 15 19 12 18 21 20 20 19 15 15 14 15 16 15 16 19 21 25 32 31 33 31 29 32 31 25 24 25 26 27 28 27 29 26 25 24
13 11 10 13 13 12 10 8 15 6 15 14 9 22 21 21 20 19 17 12 13 12 13 20 20 21 23 28 32 29 30 28 25 25 25 26 27 26 27 31 29 27 27 27
8 11 9 11 13 2 7 11 13 11 13 14 16 18 12 20 24 24 19 19 17 16 13 18 18 17 22 27 31 30 32 27 28 28 27 26 26 26 30 32 31 28 28 28
6 1 5 1 8 7 12 10 13 13 16 16 15 18 17 17 20 23 20 17 15 15 14 18 17 18 20 26 28 26 24 28 30 29 27 27 28 28 30 28 29 28 29 28
4 3 1 10 6 17 7 18 18 18 17 19 18 17 18 17 19 20 18 15 14 12 16 17 17 17 20 22 24 26 29 31 30 29 28 28 27 29 29 27 27 26 26 30
5 6 2 5 11 9 14 17 20 20 20 20 19 20 17 17 18 15 15 13 10 10 16 17 18 19 20 22 25 27 30 32 32 31 29 30 29 28 28 24 19 23 24 26
Wind_Direction
200 214 215 211 218 254 302 247 249 204 148 221 246 242 168 189 197 185 184 190 197 197 193 192 195 196 194 193 192 193 198 201 199 198 201 206 218 220 240 261 297 345 9 7
203 220 216 221 214 228 245 239 243 258 233 225 260 246 200 187 202 195 193 191 196 193 190 193 195 198 200 197 198 200 205 203 201 202 208 216 226 234 252 263 270 248 5 9
215 214 220 215 213 217 230 238 243 260 166 228 272 255 191 190 200 201 200 197 198 196 193 192 194 199 201 202 201 203 207 207 207 209 211 219 233 249 246 238 230 191 358 354
224 222 206 212 214 211 229 214 254 227 226 256 206 291 182 187 198 199 199 197 196 197 195 189 195 199 203 204 203 205 209 210 210 211 219 225 237 240 219 228 250 285 318 347
211 216 206 211 215 205 231 190 220 235 242 272 221 253 253 179 198 203 203 199 197 193 193 190 192 194 201 202 202 205 210 214 214 215 218 222 230 236 237 242 258 276 287 316
229 206 210 220 216 212 218 200 217 237 252 247 241 231 249 177 221 203 201 197 197 191 192 195 192 192 198 200 202 204 208 213 214 214 216 218 228 232 239 239 262 271 280 302
216 209 222 230 213 208 202 202 214 218 219 241 120 233 251 170 151 202 195 195 191 189 189 191 191 193 196 199 201 203 206 210 212 213 215 218 224 230 237 246 256 274 276 286
203 213 203 197 222 194 209 217 227 210 237 220 156 239 217 140 56 209 204 188 184 188 186 189 190 192 194 198 201 203 202 207 208 210 214 216 218 226 234 241 249 257 266 277
204 217 186 211 206 209 202 218 226 242 223 274 180 225 261 250 264 229 188 175 181 186 183 187 189 190 193 197 200 203 204 206 207 210 211 213 214 220 229 237 240 251 256 262
208 220 194 204 205 226 219 209 222 227 239 221 232 230 249 181 292 179 177 174 176 183 182 184 187 187 192 196 199 202 205 207 207 209 211 213 215 220 227 231 237 244 249 241
234 221 195 200 205 200 205 209 218 218 228 230 235 211 223 245 316 186 174 174 175 180 182 183 185 184 190 193 196 200 204 206 207 208 211 212 216 218 222 227 232 235 233 224
220 211 235 198 206 218 204 208 208 223 202 244 280 209 108 37 276 177 169 172 174 179 179 179 181 180 187 193 194 197 201 205 208 207 208 211 213 214 221 224 224 225 219 211
215 222 209 205 209 206 213 210 210 215 224 204 232 229 118 98 73 176 166 169 173 182 177 176 178 182 186 192 194 197 201 203 204 204 207 210 211 214 219 221 217 215 207 198
270 233 225 211 209 199 213 215 214 211 216 211 213 231 163 153 69 173 169 169 173 180 176 176 181 186 189 192 194 197 201 203 202 203 205 208 210 213 214 212 211 204 197 192
313 227 223 237 217 207 200 217 219 216 218 224 208 221 222 195 66 156 182 170 174 180 182 184 187 188 193 195 196 199 202 202 201 202 205 208 210 209 208 208 205 196 191 189
331 234 239 227 241 235 210 209 219 212 225 222 232 213 224 225 212 145 179 183 191 190 190 193 193 193 196 198 200 200 204 203 199 201 205 208 206 205 205 202 197 189 186 181
313 327 226 223 225 230 233 217 210 219 217 221 226 225 230 211 219 218 179 191 200 199 199 199 201 198 197 200 199 203 205 202 201 203 206 206 205 204 202 197 191 186 179 176
262 307 276 224 208 224 231 216 230 220 222 222 232 230 230 234 224 230 220 216 208 217 206 206 206 203 206 205 201 205 204 199 199 203 208 207 203 201 197 193 191 184 180 177
228 260 262 237 215 218 224 215 209 215 223 243 234 238 235 236 240 242 245 232 228 217 219 221 215 209 205 202 202 198 197 196 200 206 206 203 200 197 193 190 187 180 178 172
211 218 255 203 233 223 217 206 217 228 235 217 227 242 235 240 232 238 224 226 230 232 225 226 222 219 208 207 201 195 196 195 202 202 200 198 195 194 191 188 180 179 176 169
187 207 223 226 248 244 359 239 206 217 236 219 222 224 228 231 225 250 251 211 229 228 230 223 215 210 212 202 193 199 200 204 204 198 195 192 192 191 190 180 170 174 170 164
182 195 196 225 223 234 1 274 239 327 319 297 265 227 226 232 237 237 244 237 231 223 226 209 202 207 203 197 193 197 204 203 191 186 185 187 187 186 182 169 168 171 166 161
216 220 225 206 209 245 4 334 322 326 323 323 323 324 287 237 233 235 239 234 241 236 216 210 208 198 196 196 198 198 206 188 179 177 180 180 179 180 169 168 166 166 165 162
189 330 243 185 211 304 311 9 355 336 319 310 306 298 287 282 264 242 240 235 236 231 216 210 202 202 193 198 201 201 181 174 170 172 174 174 174 170 168 173 173 171 171 171
353 250 219 248 26 322 148 351 337 322 313 303 295 289 286 276 268 256 248 236 223 223 215 202 204 199 193 193 197 187 174 170 171 170 171 171 171 166 168 174 180 181 184 180
35 17 314 48 11 330 321 321 329 322 318 307 296 291 283 275 266 259 259 253 248 227 210 200 196 196 184 186 187 178 173 171 168 164 167 171 166 167 168 165 159 175 177 182
Height
748 760 761 748 743 737 744 752 757 748 745 759 760 759 762 774 775 779 786 795 796 796 800 806 812 817 821 826 830 834 837 840 843 845 846 846 847 848 849 850 851 852 851 850
746 755 736 732 735 743 748 755 757 746 747 754 749 757 748 762 767 767 773 779 783 788 794 801 807 813 818 822 827 830 834 838 841 843 845 845 846 847 849 849 850 851 851 850
740 736 729 734 740 752 747 753 752 757 751 748 752 752 748 751 758 759 762 767 774 778 785 793 801 807 812 817 822 827 830 835 838 841 843 844 846 846 847 847 848 849 850 849
729 720 729 734 742 740 752 735 742 750 760 763 746 767 745 743 755 756 757 760 764 771 778 786 794 801 806 812 818 823 827 831 835 838 840 842 842 843 844 846 847 849 849 848
732 727 730 738 733 726 740 727 740 745 752 752 750 764 732 728 750 748 748 751 755 762 769 777 786 794 801 807 812 818 823 827 831 834 836 839 841 842 844 845 846 847 847 847
719 709 715 718 716 717 720 739 742 743 747 769 748 754 734 727 727 729 736 741 747 754 762 770 779 788 795 801 807 812 817 822 826 829 832 836 838 840 841 843 844 844 844 844
730 718 714 708 724 716 726 743 770 778 772 770 735 751 726 710 709 709 720 730 738 745 754 763 771 779 787 794 800 806 811 816 820 824 827 831 835 838 840 841 842 842 841 841
735 743 719 708 714 726 731 731 752 786 779 754 742 757 730 701 696 696 699 715 729 738 745 755 763 772 780 787 794 800 805 811 815 819 822 827 831 834 835 837 839 839 839 839
722 720 700 702 703 707 726 733 713 739 735 748 730 726 706 694 700 697 701 709 723 731 738 748 756 765 773 780 787 793 799 805 809 814 818 822 826 829 831 833 835 836 837 837
701 726 699 704 702 699 703 707 739 731 773 773 739 735 728 711 700 702 703 709 719 727 733 742 750 759 767 774 781 788 794 799 804 809 813 817 821 824 827 829 831 832 833 834
695 706 706 702 714 713 717 715 717 719 729 750 755 732 691 698 696 701 701 707 715 721 727 736 743 753 762 768 775 781 788 794 799 804 808 812 816 819 822 824 826 828 830 831
694 701 713 708 690 688 697 708 711 730 745 728 726 719 678 688 688 689 696 704 711 716 722 730 739 748 757 762 768 775 781 787 792 798 803 807 811 814 816 818 821 823 825 827
700 704 718 710 697 691 695 695 695 702 704 736 743 722 677 682 690 687 694 701 709 714 719 727 736 743 750 757 763 769 775 781 787 792 797 801 805 807 810 813 816 818 820 823
729 702 698 701 695 687 709 697 691 700 717 717 720 708 695 687 690 694 692 698 706 712 717 723 732 739 746 752 758 764 770 775 780 785 790 794 797 800 804 808 811 813 816 820
718 714 695 683 673 681 693 698 692 697 698 712 701 707 688 685 688 691 692 698 705 711 715 718 726 733 740 747 752 758 763 768 772 778 782 786 790 795 798 802 805 809 813 816
729 720 702 702 682 684 686 686 686 689 690 691 692 693 674 674 677 689 695 697 704 706 707 712 719 727 732 738 743 749 754 759 765 770 774 779 784 788 792 796 800 804 809 813
741 726 721 716 695 693 700 676 681 682 683 685 698 683 671 680 684 685 686 691 696 698 702 707 710 714 720 727 733 739 745 752 757 763 768 773 777 781 785 790 795 799 805 809
752 749 732 705 699 720 676 661 664 674 673 671 674 670 673 674 674 672 671 677 686 687 690 696 701 707 713 718 725 730 737 743 749 756 760 764 769 776 782 786 791 796 800 804
740 745 726 714 697 688 675 665 672 679 685 670 673 669 669 667 669 673 667 672 674 678 683 687 692 695 703 710 714 721 728 734 741 744 750 757 763 769 774 778 785 790 795 800
728 738 737 715 708 705 674 658 655 660 691 666 670 671 670 672 692 680 665 669 670 671 675 679 685 692 698 701 710 714 717 723 727 733 739 748 756 762 767 772 777 785 792 796
727 734 737 729 714 684 665 653 652 697 685 657 661 665 668 671 667 661 655 660 662 665 670 675 679 681 682 691 697 704 710 712 716 728 736 743 749 755 761 768 774 781 788 793
716 725 724 725 721 718 671 664 682 678 663 651 648 651 657 658 659 658 659 659 660 660 664 669 671 673 678 684 688 694 699 704 714 722 730 737 743 749 756 762 769 777 783 789
709 694 691 699 698 673 676 682 677 674 674 666 663 654 646 650 651 649 652 653 654 654 657 662 664 667 672 677 680 683 687 700 707 715 723 730 738 745 750 758 765 773 779 785
698 697 695 699 687 687 690 683 685 681 679 671 667 662 657 656 646 642 642 643 644 646 648 653 656 660 663 669 674 679 686 694 700 709 718 725 732 740 748 755 762 767 772 778
705 702 698 696 692 689 677 690 687 682 675 669 664 659 654 650 644 641 635 636 637 639 641 644 648 651 656 664 671 674 679 687 695 703 712 721 729 736 743 751 757 761 767 770
706 713 701 699 714 712 704 694 684 678 669 663 657 650 648 644 638 635 631 629 634 634 636 639 643 648 651 660 666 671 674 681 688 696 707 715 723 731 738 745 751 756 763 769